When you browse on this site, cookies collect data to enhance your experience and personalize the content and advertising you see.
Visit our Privacy Policy to learn more. By continuing to use the site, you agree to this use of cookies and data.
  • In Hungary
  • List of Countries
  • For 7 days
  • Water Temperature
  • Satellite Maps
  • Weather Map
  • News
  • Weather Widgets
  • user-avatar
    Login

    Hourly Weather Chintamani

    Today, 21 November, Wednesday

    Time Temperature Precipitation Wind Pressure Humidity
    00:00 +20°C° 0 mm 2 mps 687 mmHg 94%
    01:00 +20°C° 0 mm 2 mps 687 mmHg 95%
    02:00 +19°C° 0 mm 2 mps 686 mmHg 95%
    03:00 +19°C° 0 mm 2 mps 686 mmHg 95%
    04:00 +19°C° 0 mm 2 mps 686 mmHg 95%
    05:00 +19°C° 0 mm 2 mps 686 mmHg 95%
    06:00 +20°C° 0 mm 3 mps 687 mmHg 89%
    07:00 +21°C° 0 mm 4 mps 687 mmHg 84%
    08:00 +22°C° 0 mm 5 mps 688 mmHg 78%
    09:00 +23°C° 0 mm 5 mps 688 mmHg 76%
    10:00 +23°C° 0 mm 6 mps 688 mmHg 75%
    11:00 +24°C° 0 mm 6 mps 688 mmHg 73%
    12:00 +24°C° 0.1 mm 6 mps 687 mmHg 76%
    13:00 +23°C° 0.1 mm 5 mps 686 mmHg 79%
    14:00 +23°C° 0.1 mm 5 mps 686 mmHg 82%
    15:00 +22°C° 0.2 mm 5 mps 686 mmHg 84%
    16:00 +22°C° 0.2 mm 5 mps 686 mmHg 86%
    17:00 +21°C° 0.2 mm 4 mps 686 mmHg 89%
    18:00 +21°C° 0.2 mm 4 mps 687 mmHg 90%
    19:00 +21°C° 0.2 mm 4 mps 687 mmHg 91%
    20:00 +21°C° 0.2 mm 4 mps 688 mmHg 92%
    21:00 +21°C° 0.2 mm 4 mps 688 mmHg 92%
    22:00 +21°C° 0.2 mm 4 mps 687 mmHg 93%
    23:00 +21°C° 0.2 mm 4 mps 687 mmHg 94%

    Tomorrow, 22 November, Thursday

    Time Temperature Precipitation Wind Pressure Humidity
    00:00 +21°C° 0.7 mm 4 mps 687 mmHg 94%
    01:00 +21°C° 0.7 mm 4 mps 687 mmHg 94%
    02:00 +21°C° 0.7 mm 4 mps 686 mmHg 94%
    03:00 +21°C° 0.4 mm 4 mps 686 mmHg 94%
    04:00 +21°C° 0.4 mm 4 mps 686 mmHg 94%
    05:00 +21°C° 0.4 mm 4 mps 686 mmHg 94%
    06:00 +21°C° 0.9 mm 4 mps 687 mmHg 93%
    07:00 +21°C° 0.9 mm 4 mps 688 mmHg 93%
    08:00 +21°C° 0.9 mm 5 mps 688 mmHg 92%
    09:00 +21°C° 1 mm 5 mps 688 mmHg 91%
    10:00 +21°C° 1 mm 5 mps 688 mmHg 91%
    11:00 +22°C° 1 mm 6 mps 688 mmHg 90%
    12:00 +22°C° 0.9 mm 6 mps 688 mmHg 90%
    13:00 +22°C° 0.9 mm 6 mps 687 mmHg 89%
    14:00 +22°C° 0.9 mm 6 mps 686 mmHg 89%
    15:00 +22°C° 0.6 mm 5 mps 686 mmHg 90%
    16:00 +21°C° 0.6 mm 5 mps 687 mmHg 91%
    17:00 +21°C° 0.6 mm 5 mps 687 mmHg 92%
    18:00 +21°C° 0.1 mm 5 mps 687 mmHg 93%
    19:00 +21°C° 0.1 mm 5 mps 688 mmHg 94%
    20:00 +21°C° 0.1 mm 5 mps 688 mmHg 94%
    21:00 +20°C° 0.1 mm 5 mps 688 mmHg 94%
    22:00 +20°C° 0.1 mm 4 mps 688 mmHg 95%
    23:00 +20°C° 0.1 mm 4 mps 688 mmHg 95%

    Day after tomorrow, 23 November, Friday

    Time Temperature Precipitation Wind Pressure Humidity
    00:00 +20°C° 0 mm 4 mps 688 mmHg 95%
    01:00 +20°C° 0 mm 4 mps 688 mmHg 95%
    02:00 +20°C° 0 mm 3 mps 687 mmHg 95%
    03:00 +20°C° 0 mm 3 mps 687 mmHg 96%
    04:00 +20°C° 0 mm 3 mps 688 mmHg 96%
    05:00 +20°C° 0 mm 3 mps 688 mmHg 97%
    06:00 +20°C° 0 mm 3 mps 688 mmHg 94%
    07:00 +21°C° 0 mm 4 mps 689 mmHg 91%
    08:00 +22°C° 0 mm 4 mps 690 mmHg 87%
    09:00 +23°C° 0 mm 5 mps 690 mmHg 82%
    10:00 +25°C° 0 mm 5 mps 690 mmHg 77%
    11:00 +26°C° 0 mm 5 mps 690 mmHg 72%
    12:00 +27°C° 0.2 mm 5 mps 689 mmHg 70%
    13:00 +27°C° 0.2 mm 5 mps 688 mmHg 69%
    14:00 +27°C° 0.2 mm 6 mps 688 mmHg 68%
    15:00 +26°C° 0.2 mm 5 mps 688 mmHg 72%
    16:00 +25°C° 0.2 mm 5 mps 688 mmHg 76%
    17:00 +23°C° 0.2 mm 4 mps 687 mmHg 81%
    18:00 +23°C° 0 mm 4 mps 688 mmHg 84%
    19:00 +22°C° 0 mm 3 mps 689 mmHg 88%
    20:00 +21°C° 0 mm 3 mps 689 mmHg 92%
    21:00 +21°C° 0 mm 3 mps 689 mmHg 94%
    22:00 +20°C° 0 mm 3 mps 689 mmHg 95%
    23:00 +20°C° 0 mm 2 mps 689 mmHg 96%

    24 November, Saturday

    Time Temperature Precipitation Wind Pressure Humidity
    00:00 +20°C° 0 mm 2 mps 689 mmHg 96%
    01:00 +19°C° 0 mm 2 mps 688 mmHg 96%
    02:00 +19°C° 0 mm 2 mps 688 mmHg 96%
    03:00 +19°C° 0 mm 2 mps 688 mmHg 96%
    04:00 +20°C° 0 mm 1 mps 688 mmHg 96%
    05:00 +19°C° 0 mm 1 mps 688 mmHg 96%
    06:00 +21°C° 0 mm 1 mps 688 mmHg 88%
    07:00 +21°C° 0 mm 2 mps 689 mmHg 81%
    08:00 +23°C° 0 mm 2 mps 690 mmHg 74%
    09:00 +25°C° 0 mm 2 mps 690 mmHg 66%
    10:00 +26°C° 0 mm 3 mps 690 mmHg 57%
    11:00 +28°C° 0 mm 3 mps 691 mmHg 49%
    12:00 +28°C° 0 mm 3 mps 690 mmHg 49%
    13:00 +28°C° 0 mm 3 mps 689 mmHg 48%
    14:00 +29°C° 0 mm 3 mps 688 mmHg 48%
    15:00 +28°C° 0 mm 3 mps 688 mmHg 54%
    16:00 +26°C° 0 mm 3 mps 688 mmHg 61%
    17:00 +25°C° 0 mm 3 mps 688 mmHg 67%
    18:00 +24°C° 0 mm 2 mps 688 mmHg 72%
    19:00 +23°C° 0 mm 2 mps 689 mmHg 76%
    20:00 +21°C° 0 mm 2 mps 689 mmHg 81%
    21:00 +21°C° 0 mm 2 mps 689 mmHg 83%
    22:00 +21°C° 0 mm 2 mps 689 mmHg 86%
    23:00 +21°C° 0 mm 1 mps 689 mmHg 88%

    25 November, Sunday

    Time Temperature Precipitation Wind Pressure Humidity
    00:00 +21°C° 0 mm 1 mps 688 mmHg 89%
    01:00 +21°C° 0 mm 1 mps 688 mmHg 90%
    02:00 +20°C° 0 mm 1 mps 687 mmHg 91%
    03:00 +20°C° 0 mm 1 mps 687 mmHg 91%
    04:00 +20°C° 0 mm 1 mps 687 mmHg 91%
    05:00 +18°C° 0 mm 0 mps 687 mmHg 91%
    06:00 +21°C° 0 mm 1 mps 688 mmHg 85%
    07:00 +23°C° 0 mm 1 mps 689 mmHg 79%
    08:00 +24°C° 0 mm 1 mps 690 mmHg 72%
    09:00 +25°C° 0 mm 2 mps 690 mmHg 65%
    10:00 +27°C° 0 mm 3 mps 690 mmHg 57%
    11:00 +28°C° 0 mm 4 mps 690 mmHg 49%
    12:00 +28°C° 0 mm 4 mps 689 mmHg 48%
    13:00 +29°C° 0 mm 4 mps 688 mmHg 47%
    14:00 +29°C° 0 mm 4 mps 687 mmHg 45%
    15:00 +28°C° 0 mm 3 mps 687 mmHg 50%
    16:00 +27°C° 0 mm 3 mps 687 mmHg 55%
    17:00 +25°C° 0 mm 2 mps 687 mmHg 60%
    18:00 +24°C° 0 mm 2 mps 687 mmHg 63%
    19:00 +23°C° 0 mm 2 mps 688 mmHg 65%
    20:00 +21°C° 0 mm 2 mps 688 mmHg 68%
    21:00 +21°C° 0 mm 2 mps 688 mmHg 71%
    22:00 +21°C° 0 mm 1 mps 688 mmHg 73%
    23:00 +21°C° 0 mm 1 mps 687 mmHg 76%

    26 November, Monday

    Time Temperature Precipitation Wind Pressure Humidity
    00:00 +20°C° 0 mm 1 mps 687 mmHg 79%
    01:00 +20°C° 0 mm 1 mps 686 mmHg 82%
    02:00 +19°C° 0 mm 1 mps 686 mmHg 85%
    03:00 +19°C° 0 mm 1 mps 686 mmHg 87%
    04:00 +19°C° 0 mm 1 mps 686 mmHg 88%
    05:00 +19°C° 0 mm 1 mps 686 mmHg 89%
    06:00 +20°C° 0 mm 1 mps 687 mmHg 83%
    07:00 +21°C° 0 mm 1 mps 688 mmHg 77%
    08:00 +23°C° 0 mm 1 mps 689 mmHg 70%
    09:00 +24°C° 0 mm 2 mps 689 mmHg 60%
    10:00 +26°C° 0 mm 3 mps 689 mmHg 50%
    11:00 +27°C° 0 mm 4 mps 689 mmHg 40%
    12:00 +28°C° 0 mm 4 mps 688 mmHg 39%
    13:00 +28°C° 0 mm 4 mps 687 mmHg 38%
    14:00 +28°C° 0 mm 3 mps 686 mmHg 37%
    15:00 +27°C° 0 mm 3 mps 686 mmHg 43%
    16:00 +25°C° 0 mm 3 mps 686 mmHg 49%
    17:00 +24°C° 0 mm 2 mps 686 mmHg 55%
    18:00 +23°C° 0 mm 2 mps 686 mmHg 61%
    19:00 +21°C° 0 mm 2 mps 687 mmHg 66%
    20:00 +20°C° 0 mm 2 mps 687 mmHg 72%
    21:00 +19°C° 0 mm 2 mps 687 mmHg 78%
    22:00 +19°C° 0 mm 2 mps 687 mmHg 85%
    23:00 +18°C° 0 mm 2 mps 687 mmHg 91%
    Show more